�������l�o���
Date,Time,MP-1(��Sv/h),MP-2(��Sv/h),MP-3(��Sv/h),MP-4(��Sv/h),MP-5(��Sv/h),MP-6(��Sv/h),MP-7(��Sv/h),MP-8(��Sv/h),����,����(m/s),���J
2019/01/24,00:00,0.798,1.152,0.829,1.520,1.087,0.454,0.804,0.760,�k��,6.2,��
2019/01/24,00:10,0.797,1.147,0.829,1.519,1.089,0.453,0.802,0.759,�k��,6.7,��
2019/01/24,00:20,0.796,1.117,0.828,1.520,1.090,0.455,0.803,0.758,�k��,6.0,��
2019/01/24,00:30,0.795,1.121,0.829,1.521,1.090,0.453,0.803,0.758,�k�k��,5.0,��
2019/01/24,00:40,0.798,1.147,0.830,1.522,1.088,0.453,0.802,0.760,�k�k��,6.0,��
2019/01/24,00:50,0.797,1.170,0.828,1.519,1.089,0.454,0.803,0.758,�k��,4.6,��
2019/01/24,01:00,0.798,1.179,0.829,1.521,1.088,0.452,0.802,0.758,�k��,7.4,��
2019/01/24,01:10,0.798,1.179,0.829,1.518,1.089,0.452,0.802,0.761,�k��,9.2,��
2019/01/24,01:20,0.797,1.180,0.828,1.520,1.092,0.454,0.804,0.757,�k��,8.1,��
2019/01/24,01:30,0.797,1.180,0.830,1.520,1.090,0.453,0.803,0.757,�k��,6.8,��
2019/01/24,01:40,0.796,1.180,0.831,1.518,1.091,0.452,0.805,0.759,�k��,9.3,��
2019/01/24,01:50,0.795,1.181,0.829,1.518,1.090,0.452,0.805,0.758,�k��,8.8,��
2019/01/24,02:00,0.798,1.183,0.829,1.519,1.089,0.454,0.804,0.757,�k��,9.2,��
2019/01/24,02:10,0.797,1.179,0.830,1.522,1.089,0.454,0.803,0.758,�k��,7.6,��
2019/01/24,02:20,0.797,1.181,0.830,1.521,1.089,0.453,0.804,0.758,�k��,7.5,��
2019/01/24,02:30,0.796,1.182,0.829,1.520,1.088,0.453,0.804,0.757,�k��,6.8,��
2019/01/24,02:40,0.796,1.181,0.828,1.520,1.087,0.451,0.804,0.758,�k��,6.0,��
2019/01/24,02:50,0.796,1.179,0.830,1.518,1.090,0.453,0.803,0.759,���k��,5.6,��
2019/01/24,03:00,0.797,1.180,0.829,1.519,1.088,0.453,0.805,0.760,���k��,5.5,��
2019/01/24,03:10,0.796,1.181,0.830,1.520,1.089,0.454,0.803,0.760,���k��,5.9,��
2019/01/24,03:20,0.796,1.180,0.831,1.521,1.089,0.453,0.804,0.759,���k��,5.9,��
2019/01/24,03:30,0.793,1.181,0.827,1.522,1.086,0.454,0.804,0.759,�k��,5.3,��
2019/01/24,03:40,0.796,1.178,0.828,1.522,1.090,0.452,0.802,0.757,���k��,3.1,��
2019/01/24,03:50,0.797,1.182,0.829,1.520,1.088,0.453,0.804,0.759,�k��,3.5,�L
2019/01/24,04:00,0.797,1.181,0.827,1.520,1.090,0.452,0.802,0.758,�k��,4.3,�L
2019/01/24,04:10,0.795,1.182,0.829,1.521,1.090,0.453,0.804,0.759,�k��,4.1,��
2019/01/24,04:20,0.796,1.182,0.827,1.521,1.088,0.453,0.802,0.760,�k��,3.0,��
2019/01/24,04:30,0.796,1.180,0.828,1.520,1.089,0.454,0.803,0.758,�k�k��,4.0,��
2019/01/24,04:40,0.796,1.180,0.831,1.517,1.087,0.452,0.802,0.758,�k�k��,2.9,��
2019/01/24,04:50,0.796,1.178,0.828,1.517,1.087,0.453,0.803,0.759,�k�k��,3.7,��
2019/01/24,05:00,0.797,1.179,0.828,1.518,1.087,0.453,0.801,0.758,�k�k��,4.4,��
2019/01/24,05:10,0.795,1.181,0.827,1.521,1.086,0.452,0.802,0.759,�k��,2.5,��
2019/01/24,05:20,0.797,1.180,0.828,1.520,1.090,0.452,0.802,0.757,���k��,1.5,��
2019/01/24,05:30,0.796,1.182,0.828,1.517,1.088,0.452,0.801,0.757,���k��,1.7,��
2019/01/24,05:40,0.794,1.183,0.826,1.520,1.089,0.451,0.801,0.758,�쐼,1.5,��
2019/01/24,05:50,0.794,1.178,0.827,1.520,1.088,0.452,0.801,0.759,�k��,1.7,��
2019/01/24,06:00,0.794,1.178,0.828,1.519,1.086,0.452,0.803,0.758,���k��,2.0,��
2019/01/24,06:10,0.795,1.180,0.828,1.517,1.089,0.451,0.799,0.758,�k��,2.3,��
2019/01/24,06:20,0.795,1.180,0.828,1.517,1.086,0.451,0.800,0.757,�k�k��,2.6,��
2019/01/24,06:30,0.795,1.177,0.828,1.520,1.087,0.452,0.800,0.758,���k��,2.9,��
2019/01/24,06:40,0.791,1.178,0.828,1.518,1.088,0.451,0.801,0.758,���k��,5.7,��
2019/01/24,06:50,0.794,1.178,0.828,1.519,1.088,0.450,0.802,0.759,�k��,4.4,��
2019/01/24,07:00,0.795,1.179,0.828,1.519,1.087,0.452,0.800,0.758,��,5.7,��
2019/01/24,07:10,0.795,1.179,0.829,1.517,1.084,0.451,0.801,0.757,���k��,5.5,��
2019/01/24,07:20,0.794,1.179,0.826,1.517,1.087,0.449,0.800,0.757,�k��,4.7,��
2019/01/24,07:30,0.794,1.176,0.825,1.518,1.087,0.452,0.801,0.758,���k��,4.7,��
2019/01/24,07:40,0.795,1.177,0.828,1.519,1.086,0.452,0.800,0.758,�k��,2.6,��
2019/01/24,07:50,0.793,1.178,0.826,1.517,1.088,0.450,0.802,0.758,�k�k��,2.6,��
2019/01/24,08:00,0.794,1.179,0.827,1.518,1.087,0.452,0.801,0.757,�k��,2.2,��
2019/01/24,08:10,0.795,1.174,0.828,1.518,1.089,0.452,0.801,0.757,�k��,3.2,��
2019/01/24,08:20,0.796,1.176,0.827,1.518,1.087,0.451,0.802,0.758,���k��,6.3,��
2019/01/24,08:30,0.797,1.176,0.827,1.519,1.088,0.452,0.800,0.758,���k��,5.6,��
2019/01/24,08:40,0.794,1.174,0.827,1.516,1.089,0.452,0.801,0.756,��,7.3,��
2019/01/24,08:50,0.796,1.171,0.826,1.515,1.088,0.451,0.803,0.759,��,7.9,��
2019/01/24,09:00,0.796,1.170,0.826,1.516,1.089,0.450,0.803,0.758,���k��,6.2,��
2019/01/24,09:10,0.797,1.178,0.827,1.519,1.086,0.448,0.802,0.758,��,5.7,��
2019/01/24,09:20,0.798,1.175,0.828,1.518,1.087,0.446,0.803,0.757,���k��,5.6,��
2019/01/24,09:30,0.795,1.174,0.828,1.517,1.087,0.450,0.802,0.759,���k��,9.6,��
2019/01/24,09:40,0.797,1.177,0.825,1.518,1.087,0.451,0.802,0.761,�k��,11.6,��
2019/01/24,09:50,0.796,1.174,0.825,1.517,1.088,0.449,0.799,0.759,���k��,10.0,��
2019/01/24,10:00,0.796,1.174,0.828,1.516,1.088,0.450,0.801,0.758,���k��,11.4,��
2019/01/24,10:10,0.796,1.176,0.828,1.517,1.086,0.450,0.800,0.759,�k��,7.7,��
2019/01/24,10:20,0.797,1.175,0.828,1.519,1.089,0.450,0.802,0.758,���k��,9.7,��
2019/01/24,10:30,0.794,1.176,0.829,1.516,1.089,0.452,0.802,0.759,�k��,9.9,��
2019/01/24,10:40,0.797,1.174,0.828,1.520,1.086,0.454,0.801,0.760,���k��,7.2,��
2019/01/24,10:50,0.798,1.179,0.821,1.515,1.088,0.454,0.801,0.760,��,7.3,��
2019/01/24,11:00,0.798,1.176,0.817,1.518,1.090,0.454,0.802,0.759,���k��,10.2,��
2019/01/24,11:10,0.797,1.177,0.828,1.521,1.090,0.455,0.802,0.760,�k��,6.1,��
2019/01/24,11:20,0.798,1.174,0.826,1.522,1.089,0.453,0.802,0.760,�k�k��,7.0,��
2019/01/24,11:30,0.797,1.176,0.827,1.522,1.088,0.452,0.805,0.760,�k�k��,7.4,��
2019/01/24,11:40,0.798,1.180,0.829,1.523,1.091,0.453,0.802,0.759,�k,7.2,��
2019/01/24,11:50,0.797,1.179,0.829,1.522,1.089,0.454,0.804,0.759,�k,8.3,��
2019/01/24,12:00,0.798,1.181,0.829,1.521,1.090,0.454,0.802,0.760,�k�k��,7.4,��
2019/01/24,12:10,0.796,1.179,0.831,1.521,1.090,0.454,0.800,0.759,�k�k��,5.2,��
2019/01/24,12:20,0.798,1.181,0.830,1.521,1.089,0.454,0.803,0.761,�k�k��,6.5,��
2019/01/24,12:30,0.798,1.182,0.830,1.521,1.091,0.453,0.801,0.761,�k��,5.3,��
2019/01/24,12:40,0.797,1.179,0.829,1.521,1.091,0.452,0.803,0.761,�k,7.5,��
2019/01/24,12:50,0.799,1.174,0.829,1.522,1.091,0.454,0.803,0.760,�k�k��,7.7,��
2019/01/24,13:00,0.797,1.176,0.831,1.521,1.093,0.453,0.801,0.760,�k�k��,7.0,��
2019/01/24,13:10,0.797,1.178,0.829,1.523,1.089,0.454,0.803,0.759,�k�k��,9.1,��
2019/01/24,13:20,0.799,1.175,0.829,1.521,1.090,0.454,0.803,0.758,�k�k��,7.7,��
2019/01/24,13:30,0.798,1.173,0.827,1.523,1.092,0.453,0.802,0.759,�k�k��,6.6,��
2019/01/24,13:40,0.799,1.175,0.829,1.521,1.090,0.452,0.802,0.759,�k�k��,5.1,��
2019/01/24,13:50,0.798,1.174,0.827,1.520,1.088,0.454,0.802,0.757,�k��,8.5,��
2019/01/24,14:00,0.797,1.174,0.827,1.521,1.089,0.453,0.803,0.759,�k��,8.9,��
2019/01/24,14:10,0.799,1.178,0.828,1.523,1.088,0.453,0.803,0.758,�k,6.1,��
2019/01/24,14:20,0.800,1.177,0.828,1.519,1.088,0.451,0.803,0.756,�k�k��,6.8,��
2019/01/24,14:30,0.798,1.180,0.830,1.520,1.090,0.453,0.803,0.757,�k��,8.1,��
2019/01/24,14:40,0.798,1.178,0.828,1.520,1.090,0.454,0.805,0.758,�k��,6.3,��
2019/01/24,14:50,0.800,1.176,0.829,1.521,1.091,0.451,0.805,0.758,�k��,6.1,��
2019/01/24,15:00,0.798,1.176,0.828,1.522,1.090,0.453,0.804,0.759,���k��,10.3,��
2019/01/24,15:10,0.799,1.176,0.829,1.522,1.091,0.453,0.803,0.759,���k��,5.1,��
2019/01/24,15:20,0.797,1.178,0.828,1.523,1.092,0.453,0.802,0.758,���k��,6.1,��
2019/01/24,15:30,0.797,1.180,0.830,1.523,1.092,0.452,0.803,0.760,�k��,7.9,��
2019/01/24,15:40,0.799,1.180,0.827,1.522,1.091,0.451,0.804,0.758,�k��,8.1,��
2019/01/24,15:50,0.798,1.182,0.829,1.523,1.093,0.451,0.804,0.760,�k�k��,5.4,��
2019/01/24,16:00,0.796,1.179,0.827,1.521,1.091,0.453,0.804,0.758,�k,4.7,��
2019/01/24,16:10,0.798,1.183,0.829,1.522,1.090,0.451,0.804,0.758,�k,5.0,��
2019/01/24,16:20,0.796,1.183,0.829,1.524,1.091,0.451,0.802,0.759,�k,4.8,��
2019/01/24,16:30,0.796,1.182,0.828,1.520,1.094,0.453,0.802,0.757,�k,5.3,��
2019/01/24,16:40,0.796,1.181,0.828,1.525,1.092,0.451,0.803,0.759,�k,5.8,��
2019/01/24,16:50,0.795,1.181,0.828,1.524,1.092,0.452,0.803,0.759,�k,6.0,��
2019/01/24,17:00,0.794,1.184,0.827,1.525,1.090,0.451,0.803,0.758,�k,6.3,��
2019/01/24,17:10,0.796,1.168,0.826,1.520,1.090,0.452,0.803,0.757,�k,6.3,��
2019/01/24,17:20,0.795,1.095,0.827,1.522,1.090,0.451,0.802,0.760,�k,6.1,��
2019/01/24,17:30,0.794,1.098,0.829,1.520,1.090,0.452,0.802,0.758,�k,6.6,��
2019/01/24,17:40,0.793,1.100,0.826,1.522,1.090,0.451,0.803,0.757,�k,7.4,��
2019/01/24,17:50,0.794,1.098,0.827,1.521,1.093,0.452,0.804,0.758,�k,7.2,��
2019/01/24,18:00,0.794,1.146,0.826,1.519,1.088,0.451,0.802,0.757,�k,7.8,��
2019/01/24,18:10,0.795,1.163,0.825,1.522,1.091,0.450,0.802,0.757,�k,7.5,��
2019/01/24,18:20,0.793,1.148,0.825,1.521,1.091,0.450,0.802,0.758,�k,7.8,��
2019/01/24,18:30,0.793,1.147,0.826,1.519,1.090,0.449,0.800,0.758,�k�k��,8.6,��
2019/01/24,18:40,0.794,1.148,0.825,1.519,1.090,0.450,0.803,0.756,�k,8.0,��
2019/01/24,18:50,0.792,1.174,0.826,1.518,1.089,0.449,0.803,0.758,�k�k��,8.6,��
2019/01/24,19:00,0.794,1.178,0.822,1.520,1.088,0.449,0.802,0.759,�k�k��,8.2,��
2019/01/24,19:10,0.794,1.177,0.825,1.520,1.089,0.450,0.803,0.758,�k�k��,8.4,��
2019/01/24,19:20,0.794,1.178,0.826,1.521,1.090,0.449,0.803,0.756,�k�k��,8.3,��
2019/01/24,19:30,0.795,1.178,0.827,1.520,1.089,0.449,0.802,0.757,�k�k��,9.1,��
2019/01/24,19:40,0.794,1.168,0.825,1.518,1.089,0.448,0.801,0.759,�k�k��,9.3,��
2019/01/24,19:50,0.795,1.171,0.827,1.518,1.087,0.447,0.802,0.759,�k�k��,7.4,��
2019/01/24,20:00,0.795,1.169,0.825,1.517,1.089,0.449,0.801,0.758,�k��,7.0,��
2019/01/24,20:10,0.795,1.169,0.826,1.518,1.089,0.448,0.801,0.757,�k�k��,6.8,��
2019/01/24,20:20,0.793,1.173,0.825,1.519,1.089,0.449,0.802,0.758,�k�k��,6.7,��
2019/01/24,20:30,0.795,1.175,0.823,1.520,1.090,0.450,0.801,0.757,�k�k��,7.4,��
2019/01/24,20:40,0.794,1.179,0.826,1.520,1.089,0.451,0.802,0.758,�k��,6.6,��
2019/01/24,20:50,0.793,1.174,0.826,1.518,1.091,0.450,0.801,0.758,�k�k��,6.1,��
2019/01/24,21:00,0.794,1.173,0.826,1.519,1.088,0.450,0.801,0.756,�k�k��,6.5,��
2019/01/24,21:10,0.793,1.171,0.829,1.518,1.089,0.452,0.802,0.758,�k�k��,6.5,��
2019/01/24,21:20,0.795,1.171,0.827,1.523,1.090,0.452,0.800,0.756,�k��,6.1,��
2019/01/24,21:30,0.795,1.171,0.830,1.520,1.089,0.451,0.802,0.757,�k�k��,5.8,��
2019/01/24,21:40,0.794,1.170,0.829,1.517,1.089,0.451,0.801,0.760,�k��,4.8,��
2019/01/24,21:50,0.794,1.173,0.828,1.516,1.088,0.450,0.801,0.756,-,CALM,��
2019/01/24,22:00,0.795,1.167,0.828,1.520,1.090,0.449,0.800,0.756,���k��,0.6,��
2019/01/24,22:10,0.795,1.173,0.827,1.518,1.090,0.449,0.800,0.757,�k�k��,3.3,��
2019/01/24,22:20,0.794,1.170,0.827,1.518,1.090,0.450,0.801,0.756,�k�k��,3.9,��
2019/01/24,22:30,0.796,1.171,0.826,1.519,1.087,0.451,0.798,0.757,�k�k��,3.8,��
2019/01/24,22:40,0.793,1.171,0.827,1.518,1.089,0.449,0.802,0.756,�k��,2.3,��
2019/01/24,22:50,0.793,1.170,0.825,1.516,1.090,0.450,0.800,0.757,�k��,2.2,��
2019/01/24,23:00,0.795,1.171,0.828,1.521,1.088,0.452,0.798,0.756,��,0.9,��
2019/01/24,23:10,0.793,1.170,0.825,1.516,1.089,0.450,0.799,0.757,-,CALM,��
2019/01/24,23:20,0.794,1.177,0.826,1.521,1.090,0.451,0.800,0.757,-,CALM,��
2019/01/24,23:30,0.794,1.168,0.826,1.516,1.090,0.451,0.798,0.757,��쐼,0.9,��
2019/01/24,23:40,0.795,1.141,0.825,1.516,1.092,0.449,0.800,0.756,��쐼,2.0,��
2019/01/24,23:50,0.794,1.135,0.829,1.521,1.089,0.449,0.799,0.757,���쐼,0.9,��
